18:41
Airports
History
Links
Donate
Help keep this website running!
PayPal
Bitcoin
Information on this page is community maintained and may be outdated or inaccurate and is intended for reference only or PC simulator navigating.
Always use approved charts for navigating.
LIRQ
Firenze
Firenze (LIRQ)
Florence, Toscana, Italy (50127)
(C)
Lat/Lng:43° 48' 35.95" N / 11° 12' 18.42" E
43.809985 / 11.205118
Elevation:142'ft 43mMSL
ID / ICAO:LIRQ
Runways:1
Longest:(05-23) 1,657.6m 5,438ft Asphalt
Controlled:Yes
Distance To
Airport ID:
Airport Radio Frequencies
ATIS: 129.35
Tower: 118.3, 122.1
Approach: 122.1, 126.07
Nearby VORs <50NM
Nearby NDBs
METARUpdated 07-20-17 18:20 GMT
Altimeter: 29.85
Visibility: 6.2 statute miles
Wind: 9 knots (250°)
Temp: 28°c 82°f
Humidity: 51.3%

METAR: LIRQ 201820Z 25009KT 230V290 9999 FEW080 28/17 Q1011

(Powered by phpweather)
Runway 05 / 23
Dimensions:1657.6 x 29.9m 5438' x 98'ft
Surface:Asphalt
Edge Lights:Medium intensity
Runway 05 [A]Runway 23 [B]
Heading:048°TH 228°TH
Lat:
Lng:
43° 48' 18.24"N
11° 11' 50.67"E
43° 48' 53.65"N
11° 12' 46.18"E
ALS:SSALF
TDZ:Yes, lighted
User Notes and Comments
Google Map
Nearby Airports
(U) Lucca Tassignano 31.3 NM
LIQL W 272°
(U) AMPUGNANO 38.4 NM
LIQS S 176°
4 Pavullo 39.9 NM
LIDP NNW 332°
4 Arezzo 40.4 NM
LIQB (WX) SE 127°
(C) PISA 41.5 NM
LIRP (WX) WSW 257°
(C) BOLOGNA 50.3 NM
LIPE (WX) N
(C) FORLI 50.5 NM
LIPK (WX) ENE 58°
VFR Chart
Flight Planning at SkyVector.com